Regional Weather Roundup
Issued by NWS

Home | Current Version | Previous Version | Text Only | Print | Product List | Glossary Off
Versions: 1 2 3 4 5 6 7 8 9 10 11 12 13 14 15 16 17 18 19 20 21 22 23 24 25 26 27 28 29 30 31 32 33 34 35 36 37 38 39 40 41 42 43 44 45 46 47 48 49 50

914
ASUS45 KTFX 201310
RWRMT
MONTANA REGIONAL WEATHER ROUNDUP
NATIONAL WEATHER SERVICE GREAT FALLS MT
700 AM MDT FRI OCT 20 2017

NOTE: "FAIR" INDICATES FEW OR NO CLOUDS BELOW 12000 FEET WITH NO
SIGNIFICANT WEATHER AND/OR OBSTRUCTIONS TO VISIBILITY.

MTZ001>007-043-201400-
WEST OF THE DIVIDE

CITY           SKY/WX    TMP DP  RH WIND       PRES   REMARKS
KALISPELL      LGT RAIN  47  36  65 W6        29.40R
MISSOULA       CLOUDY    51  34  52 NW15G24   29.42R
BUTTE          CLOUDY    39  21  48 S8        29.43F
MULLAN PASS    SNOW      30  28  92 VRB7      29.48S VSB 1/2 WCI  23
ANACONDA         N/A     43  18  36 S5        29.40F
DEER LODGE       N/A     46  19  34 CALM      29.39F
EUREKA           N/A     46  39  76 MISG      29.40S
HAMILTON         N/A     48  25  40 N9        29.39R
LIBBY            N/A     43  43 100 CALM      29.42F
PLAINS           N/A     49  36  61 W1        29.50R
$$

MTZ008-052>055-201400-
SOUTHWEST MONTANA

CITY           SKY/WX    TMP DP  RH WIND       PRES   REMARKS
BOZEMAN        CLOUDY    54  22  28 SE13      29.42F
DILLON         CLOUDY    53  19  26 S15G26    29.42F
W YELLOWSTONE  CLOUDY    27  18  69 CALM      29.60F
ENNIS          CLOUDY    52  27  37 S13       29.52F
THREE FORKS      N/A     62  23  22 S15       29.45F
TWIN BRIDGES     N/A     53  17  24 CALM      29.49F
$$

MTZ009-010-012-014-046-048-049-054-201400-
EAST SLOPES AND CENTRAL MONTANA

CITY           SKY/WX    TMP DP  RH WIND       PRES   REMARKS
CUT BANK       CLOUDY    44  21  40 SE5       29.28F
GREAT FALLS    CLOUDY    59  17  19 S14       29.32F
MALMSTROM AFB  CLOUDY    56  20  25 S10       29.31F
HELENA         CLOUDY    48  25  40 CALM      29.35F
BOWMANS CRNR     N/A     53  19  25 S7        29.30F
CHOTEAU          N/A     48  23  37 SE9       29.31F
FAIRFIELD      CLOUDY    51  20  30 E14       29.29F
POWER          MOCLDY    51  21  30 SE9       29.31F
RAYNESFORD     MOCLDY    58  17  20 SW3       29.35F
ULM            MOCLDY    53  22  30 S9        29.31F
$$

MTZ011-013-016-021-045-047-050-051-201400-
NORTH CENTRAL MONTANA

CITY           SKY/WX    TMP DP  RH WIND       PRES   REMARKS
HAVRE          CLOUDY    39  31  72 NE7       29.30F
LEWISTOWN      CLOUDY    57  18  21 NE6       29.39F
N BAR RANCH      N/A     61  12  15 SW13      29.44F
CHINOOK          N/A     36  30  80 CALM      29.31F
DENTON           N/A     54  19  24 S20G25    29.32F
GEYSER           N/A     54  18  24 S9        29.36F
GRASS RANGE    MOCLDY    60  18  19 S12       29.35F
JUDITH GAP       N/A     45  18  34 S12       29.42F
WINIFRED       MOCLDY    56  17  21 E7        29.36F
$$

MTZ017>020-022>027-061-062-201400-
NORTHEAST MONTANA

CITY           SKY/WX    TMP DP  RH WIND       PRES   REMARKS
GLASGOW        CLOUDY    43  29  57 E12       29.35F
JORDAN           N/A     46  26  45 NW5       29.38F
SIDNEY         CLOUDY    33  29  85 CALM      29.41F
WOLF POINT     CLOUDY    37  27  67 NE5       29.37F
MALTA          CLEAR     32  28  86 NE5       29.34S
PLENTYWOOD       N/A     48  28  46 CALM      29.37F
POPLAR           N/A     41  28  60 CALM      29.38F
SCOBEY           N/A     41  23  48 CALM      29.39F
$$

MTZ028>42-056>058-201400-
SOUTHCENTRAL AND SOUTHEAST MONTANA

CITY           SKY/WX    TMP DP  RH WIND       PRES   REMARKS
BAKER          CLOUDY    39  28  64 CALM      29.47F
BILLINGS       CLOUDY    53  21  28 SW9       29.44F
LIVINGSTON     CLOUDY    57  21  24 SW14      29.45F
MILES CITY     CLOUDY    39  31  72 SE9       29.43F
BIG TIMBER     CLEAR     48  16  27 VRB3      29.47S
EKALAKA          N/A     54  18  24 SE6       29.52F
FORSYTH          N/A     37  30  75 CALM      29.43F
HARLOWTON        N/A     53  16  23 MISG      29.41F
LAUREL           N/A     45  21  39 SW7       29.44F
$$

REGIONAL REPORTS...DAKOTAS

CITY           SKY/WX    TMP DP  RH WIND       PRES   REMARKS
WILLISTON      CLOUDY    33  29  85 NE5       29.40F
MINOT          CLOUDY    36  33  89 CALM      29.42F
DICKINSON      CLOUDY    44  27  51 S12       29.42F
BEACH            N/A     36  27  69 S7        29.47S WCI  30
CROSBY           N/A     37  30  75 CALM      29.40F
TIOGA            N/A     34  32  93 CALM      29.42F
WATFORD CITY     N/A     34  28  80 CALM      29.40F
BISMARCK       PTCLDY    52  47  83 SE12      29.47F
GRAND FORKS    PTCLDY    50  47  89 S10       29.58F
FARGO          CLEAR     58  49  72 SE21G29   29.61F
BUFFALO SD       N/A     55  25  31 NW3       29.43F
RAPID CITY     CLOUDY    46  29  51 CALM      29.56F
$$

REGIONAL REPORTS...WYOMING/IDAHO/WASHINGTON

CITY           SKY/WX    TMP DP  RH WIND       PRES   REMARKS
GILLETTE       CLEAR     59  30  33 S24G31    29.54F
SHERIDAN       CLOUDY    45  26  47 SE9       29.49F
BUFFALO WY     CLOUDY    62  10  13 CALM      29.55F
CODY           CLOUDY    49  21  33 S7        29.55F
YELLOWSTONE LA   N/A     25  22  88 CALM      29.69F
IDAHO FALLS    CLOUDY    53  34  48 SW10      29.51F
SALMON         CLOUDY    31  24  75 SE3       29.37F
BOISE          LGT RAIN  44  39  82 N14       29.62S
SPOKANE        LGT RAIN  42  41  96 SW20      29.51R
$$

REGIONAL REPORTS...ALBERTA

CITY           SKY/WX    TMP DP  RH WIND       PRES   REMARKS
EDMONTON       CLEAR     34  32  93 W6        29.25F WCI  29
CALGARY        PTCLDY    39  30  70 S8        29.25F
LETHBRIDGE     MOCLDY    37  32  81 SW6       29.30F
MEDICINE HAT   CLOUDY    45  32  61 VRB2      29.26F
$$

REGIONAL REPORTS...SASKATCHEWAN

CITY           SKY/WX    TMP DP  RH WIND       PRES   REMARKS
SWIFT CURRENT  CLEAR     41  25  52 S8        29.30F
REGINA         MOCLDY    46  30  53 SE14G20   29.34F
SASKATOON      CLOUDY    41  34  75 E3        29.32F
$$




USA.gov is the U.S. government's official web portal to all federal, state and local government web resources and services.